Wind_Speed
4 4 4 4 4 4 3 3 3 3 3 2 2 2 3 3 3 4 4 4 5 5 6 6 6 6 6 6 7 7 7 7 8 8 9 9 10 10 11 12 11 11 11
5 4 4 4 4 4 3 3 3 3 2 3 2 3 3 3 3 3 3 3 4 5 6 6 5 5 6 7 7 8 8 8 8 8 9 10 11 11 11 12 12 11 12
5 5 4 4 4 4 3 3 3 3 3 3 3 3 4 4 4 3 3 3 4 5 5 6 6 6 8 8 8 8 9 9 9 9 10 10 11 11 12 12 13 13 13
5 5 5 4 5 4 4 4 4 3 3 4 4 4 5 5 4 4 4 4 4 5 6 6 7 8 9 9 9 9 9 10 10 10 10 10 11 12 13 13 14 14 14
5 5 5 6 6 6 5 5 4 4 5 5 5 5 5 5 5 5 5 5 5 6 7 8 8 9 10 9 9 9 9 10 11 11 11 11 12 13 14 14 15 15 15
6 6 6 7 7 6 7 7 6 6 6 6 6 6 6 6 6 7 7 7 8 8 8 8 9 9 10 9 10 10 10 11 11 12 12 12 13 13 14 15 16 17 17
6 6 6 6 7 7 7 7 6 6 6 6 6 7 6 7 7 8 8 9 9 9 10 9 10 10 11 11 11 11 12 13 13 13 13 12 12 13 14 15 17 17 17
7 7 7 7 7 7 7 8 7 6 6 7 7 7 8 8 8 9 10 10 10 11 11 11 11 11 11 12 13 13 13 14 14 14 14 13 13 14 14 15 16 16 16
6 6 6 6 7 7 7 8 8 7 7 7 8 8 9 9 9 9 10 11 12 12 12 12 12 12 12 12 13 14 14 14 15 15 15 14 14 15 15 14 14 15 16
6 7 7 7 8 8 8 9 9 8 8 8 8 9 10 10 10 11 11 12 13 13 13 13 13 13 13 13 13 14 14 15 15 16 16 16 16 16 16 16 16 16 16
7 7 8 9 9 9 9 10 9 10 9 9 10 11 11 12 12 13 13 13 13 13 13 13 13 13 14 14 14 15 15 15 16 17 16 17 17 17 18 18 17 18 18
9 9 9 9 10 10 10 10 11 11 11 11 11 12 12 13 13 14 14 13 14 14 14 14 14 14 15 14 15 16 17 17 17 18 18 18 18 18 18 19 19 19 19
10 10 10 11 11 11 12 12 12 12 12 13 13 14 14 14 14 14 14 14 15 15 15 15 15 15 16 15 16 16 17 18 18 19 19 19 19 18 18 18 19 19 20
12 12 12 12 13 13 14 13 13 13 14 14 15 15 16 16 16 16 16 16 16 16 16 16 16 17 17 17 17 17 18 18 18 19 19 20 19 19 18 19 18 19 20
13 13 14 14 15 15 15 15 15 15 15 16 16 17 17 17 18 18 18 17 17 17 17 18 18 18 19 19 18 18 18 18 19 20 19 19 19 19 18 19 19 19 20
14 14 15 16 17 16 17 17 17 17 17 18 18 19 19 19 19 19 19 19 18 18 19 19 19 19 20 20 20 19 19 19 19 19 19 19 19 19 19 20 19 19 20
16 16 17 17 17 18 19 19 19 19 19 20 20 20 20 20 20 20 20 19 20 20 20 20 20 20 20 21 21 21 20 20 20 19 19 19 19 19 19 19 19 19 20
18 18 19 18 19 19 19 19 20 20 21 22 22 22 21 21 21 21 20 20 21 21 21 21 21 21 21 21 21 21 21 21 20 20 19 19 20 20 20 20 20 20 19
19 20 20 20 20 20 21 21 21 22 22 22 23 22 22 22 22 22 22 22 22 22 22 22 22 22 22 22 22 22 22 22 21 21 20 21 21 21 21 21 21 21 21
22 22 22 22 21 22 22 23 23 23 23 22 22 23 22 22 23 23 23 23 23 23 23 23 23 23 23 23 23 23 23 22 21 21 21 21 21 21 21 21 21 21 22
23 23 23 23 23 23 23 24 24 24 23 23 22 23 23 23 24 24 24 23 23 23 23 23 23 23 23 23 23 23 23 23 22 22 21 21 22 21 21 21 21 21 22
24 24 25 25 25 25 25 24 25 24 23 22 22 23 24 24 24 24 24 24 24 23 23 23 23 22 22 22 23 23 23 23 24 23 22 22 22 22 22 22 21 21 22
27 27 26 26 26 25 25 25 24 24 24 24 23 23 24 25 25 25 25 25 25 24 24 23 22 22 22 23 23 23 23 23 23 23 23 23 22 22 22 22 22 22 21
27 28 27 27 26 26 26 25 25 25 25 25 25 25 25 25 25 26 26 26 25 25 24 23 23 23 23 23 22 22 22 22 22 23 23 23 23 23 23 22 22 22 22
27 28 28 28 28 28 27 26 26 26 26 25 26 26 26 26 26 26 26 26 26 25 24 24 24 23 23 23 22 22 22 22 23 23 23 23 23 23 22 23 23 22 23
28 28 28 28 28 28 28 27 26 27 27 27 27 27 26 26 26 26 27 26 25 25 25 25 24 24 24 23 22 22 22 22 22 23 23 24 23 23 23 23 23 24 24
Wind_Direction
38 35 32 19 7 355 349 337 328 333 333 315 296 280 273 284 287 280 279 283 280 276 277 280 284 280 278 277 272 274 275 273 269 267 262 260 255 252 251 249 248 248 246
29 22 15 4 358 347 338 336 329 323 329 333 311 280 275 285 283 287 283 281 278 282 286 288 282 284 283 282 277 277 276 277 274 271 268 266 261 256 252 247 247 249 247
14 9 4 360 354 344 333 324 322 325 317 321 313 289 283 295 290 286 287 288 287 292 290 289 288 288 286 286 279 277 276 275 276 274 271 271 264 258 254 251 250 251 251
15 9 0 351 345 338 326 313 315 310 306 300 301 295 298 294 289 283 279 285 293 295 290 289 288 288 291 289 282 279 278 276 275 276 273 271 265 260 257 254 252 252 251
13 5 358 356 350 345 336 314 300 295 296 294 296 299 299 293 287 288 286 286 290 298 296 292 289 289 292 286 284 283 281 277 276 277 274 270 267 262 258 257 254 253 252
3 354 348 352 352 344 341 332 305 298 296 296 299 298 301 299 287 286 287 288 292 296 296 292 289 291 291 284 283 283 282 281 280 280 276 273 268 265 262 258 255 254 253
357 355 352 352 351 351 350 341 323 316 313 301 298 298 299 302 296 294 294 289 291 295 295 293 288 288 290 289 289 283 281 280 281 281 280 281 272 267 266 264 261 258 256
347 347 352 353 347 346 345 341 327 315 312 305 297 295 301 301 299 297 296 294 293 296 294 292 288 289 287 290 290 287 283 280 279 280 283 285 280 275 271 268 264 260 258
338 334 334 338 333 330 330 330 322 312 310 309 302 300 302 300 296 298 298 298 298 297 296 295 292 289 289 291 290 287 286 284 278 278 280 282 283 279 275 270 267 262 260
323 319 318 320 317 315 316 316 314 312 306 304 302 302 302 300 299 297 297 296 296 296 294 296 294 288 285 286 288 287 287 287 283 282 280 283 282 283 277 270 268 267 264
316 313 312 312 310 308 309 309 309 311 307 304 301 301 301 299 298 296 295 294 295 295 294 294 293 292 289 287 285 285 285 286 286 285 286 286 283 282 280 274 270 266 265
310 309 306 304 305 304 305 307 306 308 308 306 303 299 297 298 297 296 295 293 293 295 296 296 294 293 292 288 287 285 286 286 286 284 286 286 284 282 281 274 271 267 264
304 302 302 300 302 302 301 303 304 305 305 305 305 302 298 296 295 294 293 293 293 294 297 296 292 292 291 289 288 288 286 287 287 286 286 285 285 282 280 276 271 266 263
302 300 300 299 299 300 300 302 305 305 303 303 303 302 299 294 294 294 294 293 294 294 295 294 291 292 292 290 288 289 288 287 288 287 286 285 285 284 282 278 273 267 264
301 297 297 296 296 298 299 300 302 302 301 300 301 302 300 297 295 295 294 295 294 292 292 292 291 292 292 292 290 289 289 289 288 288 286 287 285 283 283 282 277 270 266
299 300 298 295 294 296 295 298 298 297 297 297 298 300 301 298 296 296 296 294 294 293 292 291 290 291 290 290 290 289 288 289 288 288 287 287 286 285 283 282 279 275 271
296 298 297 295 293 294 296 296 295 294 294 296 297 297 299 300 299 298 296 295 294 292 291 289 289 289 289 289 288 287 287 286 286 286 287 286 285 283 281 282 282 280 277
294 295 296 295 294 295 296 295 293 292 293 295 295 296 296 296 297 297 295 294 293 291 290 289 288 289 289 289 288 288 287 285 284 284 284 285 283 283 282 279 280 280 279
293 297 299 298 297 296 297 297 295 294 293 292 291 292 293 293 295 297 297 295 294 291 289 288 288 288 289 289 288 287 287 285 283 282 283 283 283 283 282 280 278 278 277
294 297 298 297 296 297 297 298 296 294 292 289 289 290 290 291 293 295 297 297 296 292 290 288 287 287 288 289 287 287 286 285 283 281 281 281 281 282 282 281 279 278 276
294 294 295 295 295 296 297 297 296 295 293 289 288 289 290 292 293 294 295 296 297 294 291 289 288 288 288 288 288 287 284 283 283 282 281 282 280 280 281 280 279 279 277
290 290 292 294 294 295 296 296 295 295 294 290 288 289 290 291 292 294 295 294 295 293 292 290 289 289 288 288 288 287 285 284 284 282 282 282 281 279 280 280 279 279 278
289 291 292 293 294 294 295 295 294 293 293 291 287 288 290 291 292 293 294 294 294 292 290 291 291 289 287 286 287 287 285 283 283 283 282 281 281 280 280 279 279 279 277
288 291 290 292 291 292 293 292 291 291 292 291 288 287 289 291 292 293 292 292 292 291 289 289 289 289 288 286 286 288 286 285 283 283 283 281 280 280 278 277 277 277 278
290 292 290 293 291 289 290 290 289 290 291 291 289 287 288 290 291 292 292 291 291 290 289 288 288 287 288 287 286 286 287 287 286 285 284 282 280 279 277 276 275 275 276
289 291 291 292 291 289 287 287 288 289 288 289 289 289 289 289 290 291 291 290 290 289 288 287 285 284 286 286 286 286 287 287 287 286 284 283 282 280 277 277 276 275 275
Height
5882 5881 5881 5880 5880 5880 5879 5879 5879 5879 5879 5878 5878 5878 5878 5878 5878 5878 5878 5878 5878 5878 5878 5877 5877 5877 5877 5877 5877 5876 5876 5876 5876 5876 5876 5876 5876 5876 5877 5878 5878 5879 5880
5882 5881 5881 5880 5880 5880 5879 5879 5878 5878 5878 5878 5878 5878 5877 5877 5877 5877 5877 5877 5877 5877 5877 5876 5876 5876 5876 5875 5875 5875 5875 5874 5874 5874 5874 5874 5874 5874 5874 5875 5875 5876 5877
5882 5882 5881 5881 5880 5879 5879 5878 5878 5878 5878 5878 5877 5877 5877 5877 5877 5877 5876 5876 5876 5876 5875 5875 5874 5874 5874 5874 5873 5873 5873 5872 5872 5872 5871 5871 5871 5871 5871 5872 5872 5873 5873
5883 5882 5881 5881 5880 5879 5878 5878 5878 5877 5877 5877 5876 5876 5876 5876 5876 5876 5876 5875 5875 5875 5874 5874 5873 5873 5872 5872 5871 5871 5870 5870 5869 5869 5868 5868 5868 5868 5868 5868 5869 5869 5870
5883 5882 5881 5880 5880 5879 5878 5877 5877 5876 5876 5876 5876 5875 5875 5875 5875 5875 5875 5874 5874 5873 5873 5872 5871 5871 5870 5869 5869 5868 5868 5867 5867 5866 5865 5865 5865 5865 5865 5865 5865 5866 5866
5883 5882 5881 5880 5879 5879 5877 5877 5876 5876 5875 5875 5875 5875 5874 5874 5874 5873 5873 5873 5872 5871 5871 5870 5869 5869 5868 5867 5867 5866 5865 5864 5864 5863 5862 5862 5861 5861 5861 5861 5861 5862 5862
5883 5882 5881 5880 5879 5878 5877 5876 5875 5874 5874 5874 5874 5873 5873 5872 5872 5872 5871 5871 5870 5869 5869 5868 5867 5866 5865 5865 5864 5863 5862 5862 5861 5860 5859 5859 5858 5857 5857 5857 5857 5857 5858
5882 5881 5881 5880 5879 5878 5876 5875 5875 5874 5873 5873 5873 5872 5871 5871 5870 5870 5869 5868 5868 5867 5866 5865 5864 5863 5862 5862 5861 5860 5859 5858 5858 5857 5856 5856 5855 5854 5854 5853 5853 5853 5854
5882 5881 5880 5879 5878 5877 5876 5875 5874 5873 5872 5871 5871 5870 5870 5869 5869 5868 5867 5866 5865 5864 5863 5861 5860 5860 5859 5858 5858 5857 5856 5855 5854 5853 5853 5852 5851 5851 5850 5849 5849 5849 5850
5881 5880 5879 5878 5877 5876 5875 5874 5873 5872 5871 5870 5869 5868 5867 5867 5866 5865 5864 5863 5862 5860 5859 5858 5857 5856 5855 5855 5854 5853 5852 5851 5850 5849 5849 5848 5848 5847 5846 5845 5845 5845 5845
5879 5878 5877 5876 5875 5874 5873 5872 5871 5870 5869 5868 5867 5866 5864 5864 5862 5862 5861 5860 5858 5857 5856 5855 5853 5852 5851 5850 5849 5849 5848 5847 5846 5845 5844 5844 5843 5842 5841 5840 5840 5840 5840
5878 5877 5876 5875 5874 5872 5871 5870 5869 5868 5866 5865 5864 5863 5862 5861 5860 5858 5857 5856 5855 5854 5852 5851 5850 5848 5847 5846 5845 5844 5843 5842 5841 5841 5840 5839 5838 5837 5836 5835 5835 5835 5835
5875 5874 5874 5873 5871 5870 5869 5868 5867 5865 5864 5863 5861 5860 5859 5858 5856 5855 5853 5852 5851 5850 5849 5847 5846 5844 5843 5842 5841 5840 5839 5838 5836 5836 5835 5834 5833 5832 5831 5830 5829 5829 5829
5873 5872 5871 5870 5868 5867 5866 5865 5864 5862 5861 5860 5858 5857 5855 5854 5852 5851 5850 5848 5847 5846 5845 5843 5842 5840 5839 5838 5837 5835 5834 5833 5832 5830 5829 5828 5827 5826 5825 5824 5823 5823 5823
5870 5869 5868 5866 5865 5864 5863 5862 5860 5859 5858 5856 5855 5853 5851 5850 5848 5846 5845 5843 5843 5841 5840 5838 5837 5836 5834 5833 5832 5830 5829 5828 5827 5825 5824 5823 5821 5820 5819 5818 5818 5817 5817
5867 5865 5864 5863 5861 5860 5859 5858 5856 5855 5854 5852 5850 5849 5847 5845 5843 5842 5840 5839 5837 5836 5834 5833 5832 5831 5829 5828 5826 5825 5823 5822 5821 5820 5818 5817 5816 5815 5814 5813 5812 5811 5811
5863 5862 5860 5859 5857 5856 5855 5853 5852 5850 5849 5847 5845 5844 5842 5840 5838 5837 5835 5833 5832 5830 5829 5828 5826 5825 5824 5822 5821 5819 5818 5816 5815 5814 5813 5812 5811 5810 5809 5808 5807 5806 5805
5859 5858 5856 5854 5853 5851 5850 5848 5846 5845 5843 5842 5840 5838 5837 5835 5833 5831 5830 5828 5826 5825 5823 5822 5820 5819 5818 5816 5815 5814 5812 5811 5810 5808 5807 5806 5805 5804 5803 5802 5801 5801 5800
5854 5853 5851 5849 5848 5846 5844 5842 5841 5839 5837 5836 5834 5832 5831 5829 5828 5826 5824 5822 5820 5818 5817 5815 5814 5813 5812 5810 5809 5807 5806 5805 5804 5802 5801 5800 5799 5798 5797 5796 5796 5795 5795
5849 5847 5845 5844 5842 5840 5839 5837 5835 5833 5831 5829 5828 5826 5825 5823 5822 5820 5818 5815 5813 5812 5810 5809 5807 5806 5805 5804 5803 5801 5800 5798 5797 5796 5795 5794 5793 5792 5791 5791 5790 5789 5789
5843 5842 5840 5838 5836 5835 5833 5831 5828 5826 5824 5823 5821 5820 5819 5817 5815 5813 5811 5809 5807 5805 5804 5802 5801 5800 5798 5797 5796 5794 5793 5792 5790 5790 5788 5788 5787 5786 5785 5784 5784 5783 5783
5837 5835 5834 5832 5830 5828 5826 5824 5822 5820 5818 5816 5815 5813 5812 5810 5809 5807 5805 5803 5801 5799 5797 5796 5794 5793 5792 5790 5789 5787 5786 5785 5784 5783 5782 5781 5780 5779 5779 5778 5778 5777 5776
5830 5828 5827 5825 5823 5821 5820 5818 5815 5813 5812 5810 5808 5806 5805 5803 5802 5800 5798 5796 5794 5792 5791 5789 5788 5786 5785 5784 5782 5780 5779 5778 5777 5776 5775 5774 5773 5772 5772 5771 5771 5770 5770
5823 5822 5820 5818 5816 5815 5813 5811 5809 5807 5805 5803 5801 5799 5798 5796 5794 5792 5791 5789 5787 5785 5783 5782 5781 5779 5778 5776 5775 5774 5772 5771 5770 5769 5768 5767 5766 5766 5765 5765 5764 5764 5763
5816 5814 5812 5810 5809 5807 5805 5803 5801 5800 5798 5796 5794 5792 5790 5789 5787 5785 5783 5781 5779 5778 5776 5774 5773 5772 5770 5769 5768 5767 5765 5764 5763 5762 5762 5761 5760 5759 5758 5758 5757 5757 5757
5808 5806 5804 5802 5800 5799 5796 5795 5794 5792 5791 5789 5787 5785 5783 5781 5779 5777 5775 5773 5772 5770 5769 5767 5766 5764 5763 5762 5761 5760 5759 5757 5756 5756 5754 5753 5753 5752 5752 5751 5750 5750 5749